Location: Bukit Lungun
(2.6833°N, 113.9667°E)
Time: 13:28:52
(UTC+00:00)

Cosmos 407 Rocket - Pass Details

Date: 02 March 2021
Orbit: 744 x 786 km, 74.0° (Epoch: 20 April)

Event Time Altitude Azimuth Distance (km) Brightness Sun altitude
Rises 21:36:24 0° 200° (SSW) 3,256 6.6 -15.1°
Reaches altitude 10° 21:38:49 10° 204° (SSW) 2,321 5.8 -14.5°
Maximum altitude 21:44:00 58° 282° (WNW) 890 3.5 -13.3°
Drops below altitude 10° 21:49:06 10° 1° (N) 2,286 5.9 -12.0°
Sets 21:51:29 0° 5° (N) 3,203 6.7 -11.4°
